Regional Weather Roundup
Issued by NWS

Home | Current Version | Previous Version | Graphics & Text | Print | Product List | Glossary On
Versions: 1 2 3 4 5 6 7 8 9 10 11 12 13 14 15 16 17 18 19 20 21 22 23 24 25 26 27 28 29 30 31 32 33 34 35 36 37 38 39 40 41 42 43 44 45 46 47 48 49 50
000
ASUS43 KFSD 162010
RWRSD

WEATHER ROUNDUP FOR SOUTH DAKOTA
NATIONAL WEATHER SERVICE SIOUX FALLS SD
300 PM CDT WED APR 16 2014

NOTE: "FAIR" INDICATES FEW OR NO CLOUDS BELOW 12,000 FEET WITH NO
SIGNIFICANT WEATHER AND/OR OBSTRUCTIONS TO VISIBILITY.


SDZ001>005-009-010-012>017-162100-
NORTHWEST AND NORTH CENTRAL SOUTH DAKOTA

CITY           SKY/WX    TMP DP  RH WIND       PRES   REMARKS
BUFFALO          N/A     38  23  55 NE15G24   29.98R
FAITH            N/A     33  23  66 N12G22    30.04R WCI  24
MOBRIDGE       CLOUDY    36  24  62 NE15      30.03R
$$

SDZ012>016-024>037-041>051-057-063-072>074-162100-
SOUTHWEST AND SOUTH CENTRAL SOUTH DAKOTA

CITY           SKY/WX    TMP DP  RH WIND       PRES   REMARKS
RAPID CTY ARPT PTSUNNY   44  28  53 N16G24    29.99R
PIERRE         CLOUDY    34  26  72 N17       30.01R WCI  23
CUSTER         PTSUNNY   42  21  43 N8        29.92R
ELLSWORTH AFB  CLOUDY    42  27  55 N10G18    29.99R
PHILIP         CLOUDY    37  28  70 N15       30.03R
PINE RIDGE     CLOUDY    38  31  76 N13       29.99R
SPEARFISH      PTSUNNY   41  30  65 NW10      29.99R
WINNER         CLOUDY    34  28  79 N23       29.98R WCI  22
$$

SDZ004>011-016>023-039-040-162100-
NORTHEAST SOUTH DAKOTA

CITY           SKY/WX    TMP DP  RH WIND       PRES   REMARKS
ABERDEEN       CLOUDY    31  24  75 NE17G29   30.02R WCI  19
WATERTOWN      LGT SNOW  28  24  85 NE23G32   29.88R FOG     WCI  14
SISSETON         N/A     31  26  82 NE20G29   29.99R WCI  19
$$

SDZ017-020-022-023-036>040-048>070-162100-
SOUTHEAST SOUTH DAKOTA

CITY           SKY/WX    TMP DP  RH WIND       PRES   REMARKS
SIOUX FALLS    LGT RAIN  37  35  92 N21G30    29.73R
HURON          CLOUDY    33  26  75 N20G32    29.93R WCI  21
CHAMBERLAIN      N/A     33  28  81 N17G29    29.97R WCI  22
MITCHELL       CLOUDY    34  29  82 N24G30    29.88R WCI  21
YANKTON        CLOUDY    37  34  87 NW29G37   29.75R
$$

ABBREVIATIONS USED IN REMARKS
   TC - TEMPERATURE IN CELSIUS
  WCI - WIND CHILL INDEX
   HX - HEAT INDEX
  VSB - VISIBILITY




USA.gov is the U.S. government's official web portal to all federal, state and local government web resources and services.